www.pogodaiklimat.ru

Погода и климат >> Архив погоды >> Ирак >> Rifai


ПОГОДА в Rifai

  • Прогноз погоды в Rifai
  • Монитор погоды в Rifai
  • Климат города

АРХИВ ПОГОДЫ в Rifai

Время (UTC), дата Ветер
(напр.,м/с)
 
Видим.   Явления Облачность Т
(С)
Тd
(С)
f
(%)
Тe
(С)
Тes
(С)
Комфортность P
(гПа)
Po
(гПа)
Тmin
(С)
Tmax
(С)
R
(мм)
R24
(мм)
S
(см)
09 11.08 штиль 0 10 км 6/0
[Ac As]
+45.6 +8.7 11 +44 +59 опасность
перегрева
997.9 998.0
12 11.08 штиль 0 10 км 6/0
[Ac As]
+45.6 +8.7 11 +44 +52 опасность
перегрева
997.9 998.0
15 11.08 штиль 0 10 км ясно +47.4 +11.4 12 +46 +47 опасность
перегрева
996.6 997.0
21 11.08 штиль 0 10 км ясно +36.2 +16.6 31 +39 +39 очень
душно
997.8 998.0
00 12.08 штиль 0 10 км ясно +34.2 +15.3 32 +36 +36 душно 997.2 997.0
03 12.08 штиль 0 10 км 8/0
[Ac und]
+31.2 +12.7 32 +32 +32 жарко 997.9 998.0
09 12.08 В 3 6000 м пыль 4/0
[Ac trans]
+45.4 +13.7 16 +46 +58 опасность
перегрева
998.6 999.0
00 13.08 С 2 8000 м пыль ясно +35.2 +10.1 22 +34 +34 очень
жарко
997.0 997.0
03 13.08 штиль 0 8000 м пыль 3/0
[Ac trans]
+32.0 +13.9 33 +33 +34 жарко 998.0 998.0
06 13.08 штиль 0 8000 м пыль 3/0
[Ac trans]
+40.4 +14.0 21 +41 +53 опасность
перегрева
998.7 999.0 +31.4
09 13.08 штиль 0 5000 м пыль 3/0
[Ac trans]
+46.4 +11.7 13 +45 +68 опасность
перегрева
998.6 999.0
12 13.08 штиль 0 8000 м пыль 3/3 1050 м
[Sc]
+49.4 +9.5 10 +48 +58 опасность
перегрева
998.2 998.0
15 13.08 З 2 10 км 5/5 1050 м
[Sc]
+47.2 +7.7 10 +45 +45 опасность
перегрева
998.3 998.0
18 13.08 СЗ 2 10 км ясно +41.0 +12.5 19 +41 +41 опасность
перегрева
998.5 999.0 +49.6
21 13.08 З 3 10 км ясно +37.8 +10.4 19 +37 +37 очень
жарко
999.5 1000.0
00 14.08 З 3 10 км ясно +36.4 +6.4 16 +34 +34 очень
жарко
999.4 999.0
03 14.08 СЗ 3 10 км 3/3 1050 м
[Sc]
+31.8 +9.7 26 +31 +31 жарко 999.6 1000.0
06 14.08 СЗ 3 10 км ясно +39.2 +11.9 20 +39 +48 очень
жарко
1000.2 1000.0 +31.2
12 14.08 СЗ 3 10 км ясно +50.0 +8.2 9 +48 +57 опасность
перегрева
999.7 1000.0
18 14.08 СЗ 3 10 км ясно +40.4 +10.2 16 +39 +39 очень
жарко
1000.2 1000.0 +50.0
00 15.08 СЗ 3 10 км ясно +34.0 +11.8 26 +34 +34 очень
жарко
1000.0 1000.0
03 15.08 СЗ 3 10 км ясно +32.6 +11.5 28 +33 +33 жарко 999.5 1000.0
06 15.08 С 2 10 км ясно +41.8 +10.1 15 +40 +52 опасность
солнечного
удара
1001.5 1002.0 +32.0
09 15.08 З 2 10 км ясно +46.2 +8.8 11 +44 +64 опасность
перегрева
1000.8 1001.0
15 15.08 З 2 10 км ясно +44.6 +10.4 13 +43 +43 опасность
перегрева
999.4 999.0
18 15.08 СЗ 3 10 км ясно +39.0 +11.0 19 +38 +38 очень
жарко
1000.8 1001.0 +47.2
21 15.08 З 3 10 км ясно +36.8 +11.4 22 +36 +36 очень
жарко
1000.2 1000.0
00 16.08 штиль 0 10 км ясно +34.6 +12.8 27 +35 +35 очень
жарко
999.2 999.0
06 16.08 штиль 0 10 км 1/0
[Ac trans]
+37.6 +11.2 20 +37 +51 опасность
солнечного
удара
1002.8 1003.0 +31.4
12 16.08 штиль 0 10 км ясно +46.6 +10.3 12 +45 +60 опасность
перегрева
1000.4 1000.0
21 16.08 штиль 0 10 км ясно +36.8 +11.4 22 +36 +36 очень
жарко
1000.3 1000.0
09 17.08 Ю 3 5000 м пыль 1/0
[Ac trans]
+46.2 +11.9 14 +46 +61 опасность
перегрева
1001.0 1001.0
12 17.08 Ю 5 5000 м пыль ясно +48.8 +8.0 9 +47 +52 опасность
перегрева
999.0 999.0
15 17.08 З 5 5000 м пыль 3/0
[Ac trans]
+45.0 +8.0 11 +43 +43 опасность
перегрева
998.7 999.0
18 17.08 В 1 6000 м пыль ясно +39.8 +13.5 21 +40 +40 очень
душно
1000.3 1000.0 +48.8
21 17.08 Ю 2 4000 м пыль ясно +38.0 +12.9 22 +38 +38 очень
жарко
1000.0 1000.0
00 18.08 З 4 4000 м пыль ясно +35.4 +10.5 22 +34 +34 очень
жарко
999.6 1000.0
03 18.08 З 3 5000 м пыль 9/0
[Ac trans]
+34.2 +11.4 25 +34 +34 очень
жарко
1000.5 1001.0
06 18.08 З 2 5000 м пыль 6/0
[Ac trans]
+37.0 +12.2 23 +37 +44 очень
жарко
1001.8 1002.0 +33.6

 

Местоположение метеостанции Rifai (Ирак): широта 31.72 долгота 46.10 высота над уровнем моря 6 м.

В архиве по умолчанию представлена погода в Rifai за последнюю неделю. Архивные данные за месяц целиком и за предыдущие месяцы, начиная с января 2011 года, Вы можете получить, выбрав интересующий диапазон дат из раскрывающегося списка и нажав кнопку "Ввод!".

Внимание! Время в таблицах - всемирное. Для получения местного времени необходимо прибавить поправку, которая в Rifai равна 3 ч.

Смотрите также архив погоды в соседних городах и на ближайших метеорологических станциях:

Погода в Kut-Al-Hai (Ирак) (50 км)
Погода в Nasiriya (Ирак) (72 км)
Погода в Samawah (Ирак) (92 км)
Погода в Ubaydah Bin Al Jarrah (Ирак) (92 км)
Погода в Ali Al-Gharbi (Ирак) (102 км)
Погода в Amarah (Ирак) (102 км)
Погода в Diwaniya (Ирак) (110 км)
Погода в Badrah (Ирак) (154 км)
Погода в Azizyah (Ирак) (165 км)
Погода в Najaf (Ирак) (171 км)

Пояснения к столбцам:

Ветер - указаны скорость ветра в м/с - средняя за 10 мин, порывы в срок и между сроками (в фигурных скобках) и направление, откуда дует ветер: С - северный, СВ - северо-восточный, В - восточный, ЮВ - юго-восточный, Ю - южный, ЮЗ - юго-западный, З - западный, СЗ - северо-западный.
Видимость - горизонтальная дальность видимости в метрах или километрах. При видимости от 1 до 10 км при отсутствии осадков обычно наблюдается дымка, при ухудшении видимости до 1 км и менее - туман. В сухую погоду видимость может ухудшаться дымом, пылью или мглою.
Явления - указаны атмосферные явления, наблюдавшиеся в срок или в последний час перед сроком; фигурными скобками обозначены явления, наблюдавшиеся между сроками (за 1-3 часа до срока); квадратными скобками обозначены град или гололедные отложения с указанием их диаметра в мм.
Облачность - указаны через наклонную черту общая и нижняя облачность в баллах и высота нижней границы облаков в метрах; квадратными скобками обозначены формы облаков: Ci - перистые, Cs - перисто-слоистые, Cc - перисто-кучевые, Ac - высококучевые, As - высокослоистые, Sc - слоисто-кучевые, Ns - слоисто-дождевые, Cu - кучевые, Cb - кучево-дождевые. Подробнее классификацию облаков см. в Атласе облаков (PDF).
T - Температура воздуха - температура, измеренная на высоте 2 м над землей.
Td - Температура точки росы - температура, при понижении до которой содержащийся в воздухе водяной пар достигнет насыщения.
f - Относительная влажность воздуха - влажноcть воздуха, измеренная на высоте 2 м над землей.
Te - Эффективная температура - температура, которую ощущает одетый по сезону человек в тени. Характеристика душности погоды. При расчете учитывается влияние влажности воздуха и скорости ветра на теплоощущения человека.
Tes - Эффективная температура на солнце - температура, которую ощущает человек, с поправкой на солнечный нагрев. Характеристика знойности погоды. Зависит от высоты солнца над горизонтом, облачности и скорости ветра. Ночью, в пасмурную погоду, а также при ветре 12 м/с и более поправка равна нулю.
P - Атмосферное давление - приведенное к уровню моря атмосферное давление.
Po - Атмосферное давление - измеренное на уровне метеостанции атмосферное давление.
Tmin - Минимальная температура - минимум температуры воздуха на высоте 2 м над землей.
Tmax - Максимальная температура - максимум температуры воздуха на высоте 2 м над землей.
R - Количество осадков - Количество выпавших осадков за период времени, мм. При наведении курсора мыши на число - период времени, за который выпало указанное количество осадков.
R24 - Количество осадков - Количество выпавших осадков за 24 часа, мм.
S - Снежный покров - Высота снежного покрова, см. При наведении курсора мыши на число - состояние снежного покрова и степень покрытия местности в баллах.